Location: Hamilton
(37.7830°S, 175.2830°E)
Time: 09:33:13
(UTC+13:00)

Cosmos 1869 Rocket - Pass Details

Date: 24 January 2019
Orbit: 606 x 632 km, 82.5° (Epoch: 22 February)

Event Time Altitude Azimuth Distance (km) Brightness Sun altitude
Rises 22:29:18 0° 181° (S) 2,916 7.7 -18.8°
Reaches altitude 10° 22:31:37 10° 175° (S) 1,999 6.7 -19.1°
Maximum altitude 22:35:54 48° 100° (E) 807 3.9 -19.7°
Enters shadow 22:36:31 45° 73° (ENE) 846 3.8 -19.8°
